Powrót do katalogu

CZ-6A DEB

AktywnyPO
NORAD 54517·DEBRIS·🇨🇳 China

Wystrzelony Nov 11, 2022 z Taiyuan Satellite Launch Center

Loading…

Następne Przeloty (najbliższe 24 godziny)

TLE

ŚwieżeSource: Space-Track

Epoka: Sep 13, 2026, 17:49 UTC

1 54517U 22151JV  26256.74297568  .00008648  00000-0  11319-2 0  9995
2 54517  98.6246 334.4020 0062401 347.9068  12.0639 14.79302067203572

Śledź CZ-6A DEB w czasie rzeczywistym z AllMySat

Download on the App Store